Regional Weather Roundup
Issued by NWS

Home | Current Version | Previous Version | Graphics & Text | Print | Product List | Glossary On
Versions: 1 2 3 4 5 6 7 8 9 10 11 12 13 14 15 16 17 18 19 20 21 22 23 24 25 26 27
000
ASUS45 KBOI 271810
RWRID

IDAHO REGIONAL WEATHER ROUNDUP
NATIONAL WEATHER SERVICE BOISE ID
1100 AM MST MON FEB 27 2017

NOTE: "FAIR" INDICATES FEW OR NO CLOUDS BELOW 12000 FEET
WITH NO SIGNIFICANT WEATHER AND/OR OBSTRUCTIONS TO VISIBILITY

IDZ012-014-271900-
SOUTHWEST IDAHO


CITY           SKY/WX    TMP DP  RH WIND       PRES   REMARKS
BOISE          CLOUDY    32  23  69 W6        29.76R WCI  26
CALDWELL       CLOUDY    36  22  56 W14       29.77S WCI  27
MOUNTAIN HOME  PTSUNNY   35  24  63 NW14      29.75R WCI  26
$$

IDZ016-017-271900-
SOUTHCENTRAL IDAHO


CITY           SKY/WX    TMP DP  RH WIND       PRES   REMARKS
BURLEY         LGT SNOW  29  23  78 W18G26    29.68R WCI  16
JEROME           N/A    N/A N/A N/A MISG      29.71R
TWIN FALLS     FLURRIES  27  21  78 W21       29.71R WCI  13
$$

IDZ019>023-271900-
SOUTHEAST IDAHO


CITY           SKY/WX    TMP DP  RH WIND       PRES   REMARKS
IDAHO FALLS    LGT SNOW  24  22  91 N3        29.63S FOG
POCATELLO      LGT SNOW  27  22  81 NW3       29.64R
REXBURG        FLURRIES  24  21  88 W5        29.61F WCI  18
$$

IDZ006-010-011-018-031-032-271900-
CENTRAL IDAHO MOUNTAINS


CITY           SKY/WX    TMP DP  RH WIND       PRES   REMARKS
MCCALL         FLURRIES  22  17  81 S6        29.58R WCI  14
HAILEY         LGT SNOW  18  12  79 NW8       29.62R WCI   7
STANLEY          N/A     14   7  73 CALM      29.56S
SALMON         CLOUDY    27   9  46 N6        29.61R WCI  20
CHALLIS        PTSUNNY   19   8  62 CALM      29.60R
$$

IDZ002-004-006-007-026-271900-
NORTHERN IDAHO


CITY           SKY/WX    TMP DP  RH WIND       PRES   REMARKS
LEWISTON       LGT SNOW  32  30  92 CALM      29.73R FOG
LOWELL           N/A     34  30  85 CALM      29.74R
COEUR D`ALENE  LGT SNOW  34  27  75 SW6       29.66R VSB 3/4 WCI  29
MULLAN PASS    LGT SNOW  20  15  81 VRB6      29.46S WCI  12
$$




USA.gov is the U.S. government's official web portal to all federal, state and local government web resources and services.